LYGPR EYVP-EYVP

Flight info

Callsign LYGPR
Flight time 0h 34m
Altitude 1500
Route SIAURINIS DCT TRAKAI DCT LEDVI DCT EPINI DCT RUKAINE DCT EYVK DCT EPINI DCT ALISI DCT SIAURINIS
Aircraft P28A/L-VGD/N

Departure

Time 2026-04-20 10:16
Airport Paluknys Airfield (EYVP)

Arrival

Time 2026-04-20 10:50
Airport Paluknys Airfield (EYVP)
Time Latitude Longitude Altitude Speed Heading
2026-04-20 10:14 54.47611 24.99081 460 ft 0 kts 11°
2026-04-20 10:14 54.47642 24.99057 459 ft 12 kts 288°
2026-04-20 10:15 54.47662 24.98930 459 ft 8 kts 286°
2026-04-20 10:15 54.47672 24.98814 458 ft 18 kts 276°
2026-04-20 10:15 54.47697 24.98686 454 ft 19 kts
2026-04-20 10:15 54.48066 24.98757 491 ft 77 kts
2026-04-20 10:16 54.48657 24.98816 789 ft 92 kts
2026-04-20 10:16 54.49402 24.98901 1146 ft 121 kts
2026-04-20 10:16 54.50307 24.98871 1604 ft 133 kts
2026-04-20 10:16 54.51295 24.98736 1863 ft 145 kts 359°
2026-04-20 10:17 54.52321 24.98594 2088 ft 149 kts 359°
2026-04-20 10:17 54.53379 24.98359 2204 ft 160 kts 355°
2026-04-20 10:17 54.54526 24.98035 2336 ft 173 kts 354°
2026-04-20 10:17 54.55699 24.97662 2551 ft 169 kts 354°
2026-04-20 10:18 54.56844 24.97277 2819 ft 164 kts 352°
2026-04-20 10:18 54.57970 24.96739 2703 ft 167 kts 347°
2026-04-20 10:18 54.59037 24.96192 2440 ft 161 kts 348°
2026-04-20 10:18 54.60103 24.95588 2099 ft 160 kts 346°
2026-04-20 10:19 54.61111 24.95021 2061 ft 147 kts 348°
2026-04-20 10:19 54.62085 24.94492 2050 ft 146 kts 347°
2026-04-20 10:19 54.63064 24.93982 1908 ft 149 kts 346°
2026-04-20 10:19 54.64047 24.93595 1918 ft 143 kts
2026-04-20 10:20 54.64905 24.94347 1886 ft 136 kts 44°
2026-04-20 10:20 54.65400 24.95669 1916 ft 130 kts 65°
2026-04-20 10:20 54.65704 24.97184 2024 ft 138 kts 75°
2026-04-20 10:20 54.65806 24.98269 2137 ft 136 kts 81°
2026-04-20 10:21 54.65991 25.00480 2143 ft 145 kts 81°
2026-04-20 10:21 54.66100 25.02161 2073 ft 133 kts 81°
2026-04-20 10:21 54.66143 25.03186 2090 ft 124 kts 88°
2026-04-20 10:21 54.65929 25.04580 2145 ft 119 kts 110°
2026-04-20 10:22 54.65506 25.05850 2078 ft 122 kts 115°
2026-04-20 10:22 54.65104 25.07155 1984 ft 121 kts 114°
2026-04-20 10:22 54.64679 25.08370 2105 ft 120 kts 115°
2026-04-20 10:22 54.64279 25.09703 2056 ft 126 kts 105°
2026-04-20 10:23 54.64054 25.11072 2090 ft 112 kts 101°
2026-04-20 10:23 54.63853 25.12385 2008 ft 111 kts 100°
2026-04-20 10:23 54.63671 25.13672 2017 ft 107 kts 98°
2026-04-20 10:23 54.63504 25.14927 2065 ft 108 kts 96°
2026-04-20 10:24 54.63375 25.16193 1996 ft 107 kts 95°
2026-04-20 10:24 54.63227 25.17424 1980 ft 107 kts 102°
2026-04-20 10:24 54.62928 25.18602 2257 ft 109 kts 107°
2026-04-20 10:24 54.62650 25.19859 2090 ft 112 kts 107°
2026-04-20 10:25 54.62348 25.21010 1951 ft 102 kts 109°
2026-04-20 10:25 54.62071 25.22099 1803 ft 98 kts 108°
2026-04-20 10:25 54.61891 25.23182 1730 ft 95 kts 93°
2026-04-20 10:25 54.61801 25.24284 1629 ft 88 kts 90°
2026-04-20 10:26 54.61738 25.25294 1490 ft 79 kts 89°
2026-04-20 10:26 54.61727 25.26167 1276 ft 72 kts 77°
2026-04-20 10:26 54.61821 25.27062 1088 ft 75 kts 66°
2026-04-20 10:26 54.62171 25.27702 727 ft 70 kts 30°
2026-04-20 10:27 54.62592 25.27998 605 ft 60 kts 27°
2026-04-20 10:27 54.62939 25.28240 594 ft 48 kts 22°
2026-04-20 10:27 54.63373 25.28517 723 ft 83 kts 23°
2026-04-20 10:27 54.63926 25.29027 1051 ft 101 kts 52°
2026-04-20 10:28 54.63932 25.30352 1295 ft 126 kts 105°
2026-04-20 10:28 54.63666 25.31808 1516 ft 128 kts 102°
2026-04-20 10:28 54.63444 25.33301 1761 ft 125 kts 99°
2026-04-20 10:28 54.63307 25.34766 2062 ft 119 kts 90°
2026-04-20 10:29 54.63132 25.36238 2156 ft 130 kts 103°
2026-04-20 10:29 54.62738 25.37650 2221 ft 130 kts 114°
2026-04-20 10:29 54.62335 25.39007 2271 ft 124 kts 110°
2026-04-20 10:29 54.62009 25.40331 2353 ft 120 kts 106°
2026-04-20 10:30 54.61719 25.41667 2361 ft 121 kts 105°
2026-04-20 10:30 54.61450 25.43021 2366 ft 118 kts 105°
2026-04-20 10:30 54.61174 25.44357 2335 ft 118 kts 107°
2026-04-20 10:30 54.61266 25.45657 2335 ft 110 kts 60°
2026-04-20 10:31 54.61812 25.46538 2289 ft 113 kts 34°
2026-04-20 10:31 54.62485 25.47170 2274 ft 107 kts 29°
2026-04-20 10:31 54.63154 25.47711 2130 ft 105 kts 27°
2026-04-20 10:31 54.63839 25.48221 2021 ft 108 kts 24°
2026-04-20 10:32 54.64527 25.48677 1926 ft 106 kts 25°
2026-04-20 10:32 54.65205 25.49126 1799 ft 107 kts 27°
2026-04-20 10:32 54.65850 25.49698 1781 ft 102 kts 33°
2026-04-20 10:32 54.66337 25.50616 1562 ft 106 kts 51°
2026-04-20 10:33 54.66788 25.51566 1479 ft 96 kts 49°
2026-04-20 10:33 54.66797 25.52569 1383 ft 83 kts 98°
2026-04-20 10:33 54.66404 25.53265 1218 ft 102 kts 172°
2026-04-20 10:33 54.66170 25.52313 802 ft 93 kts 325°
2026-04-20 10:34 54.66673 25.51785 531 ft 76 kts 320°
2026-04-20 10:34 54.66937 25.51402 524 ft 20 kts 318°
2026-04-20 10:34 54.67000 25.51319 524 ft 1 kts 54°
2026-04-20 10:35 54.66539 25.51982 626 ft 91 kts 136°
2026-04-20 10:35 54.65926 25.52738 809 ft 126 kts 144°
2026-04-20 10:35 54.65058 25.52996 1503 ft 116 kts 192°
2026-04-20 10:35 54.64237 25.52678 1883 ft 124 kts 187°
2026-04-20 10:36 54.63381 25.52376 1969 ft 130 kts 186°
2026-04-20 10:36 54.62468 25.52082 2096 ft 134 kts 187°
2026-04-20 10:36 54.61546 25.51804 2221 ft 137 kts 186°
2026-04-20 10:36 54.60596 25.51535 2384 ft 139 kts 188°
2026-04-20 10:37 54.59869 25.50476 2443 ft 146 kts 245°
2026-04-20 10:37 54.59819 25.48756 2339 ft 149 kts 290°
2026-04-20 10:37 54.60225 25.47120 2417 ft 140 kts 298°
2026-04-20 10:37 54.60648 25.45624 2298 ft 137 kts 301°
2026-04-20 10:38 54.61051 25.44091 2137 ft 142 kts 299°
2026-04-20 10:38 54.61452 25.42529 2087 ft 141 kts 297°
2026-04-20 10:38 54.61780 25.40924 2103 ft 142 kts 287°
2026-04-20 10:38 54.61823 25.39242 2112 ft 144 kts 267°
2026-04-20 10:39 54.61648 25.37511 2046 ft 148 kts 261°
2026-04-20 10:39 54.61474 25.35773 1984 ft 144 kts 263°
2026-04-20 10:39 54.61280 25.34091 1782 ft 138 kts 259°
2026-04-20 10:39 54.61082 25.32531 1447 ft 130 kts 265°
2026-04-20 10:40 54.61031 25.31039 1281 ft 116 kts 270°
2026-04-20 10:40 54.61012 25.29734 1150 ft 103 kts 272°
2026-04-20 10:40 54.61163 25.28544 1039 ft 101 kts 302°
2026-04-20 10:40 54.61667 25.27777 847 ft 93 kts 347°
2026-04-20 10:41 54.62247 25.27789 665 ft 80 kts 23°
2026-04-20 10:41 54.62721 25.28096 598 ft 64 kts 28°
2026-04-20 10:41 54.63132 25.28385 613 ft 83 kts 22°
2026-04-20 10:41 54.63791 25.28849 845 ft 108 kts 26°
2026-04-20 10:42 54.63998 25.29902 1248 ft 125 kts 120°
2026-04-20 10:42 54.63193 25.30497 1458 ft 131 kts 169°
2026-04-20 10:42 54.62313 25.30540 1524 ft 123 kts 178°
2026-04-20 10:42 54.61479 25.30253 1397 ft 128 kts 209°
2026-04-20 10:43 54.61053 25.28964 1327 ft 123 kts 265°
2026-04-20 10:43 54.61417 25.27752 1038 ft 120 kts 331°
2026-04-20 10:43 54.62268 25.27795 649 ft 147 kts 23°
2026-04-20 10:43 54.63278 25.28492 660 ft 161 kts 25°
2026-04-20 10:44 54.64296 25.28229 1009 ft 165 kts 316°
2026-04-20 10:44 54.64310 25.26265 1158 ft 181 kts 248°
2026-04-20 10:44 54.63820 25.24205 1179 ft 192 kts 249°
2026-04-20 10:44 54.63333 25.22014 1167 ft 197 kts 255°
2026-04-20 10:45 54.63062 25.19773 1424 ft 185 kts 263°
2026-04-20 10:45 54.62910 25.17577 1664 ft 184 kts 268°
2026-04-20 10:45 54.62945 25.15356 1787 ft 187 kts 275°
2026-04-20 10:45 54.62980 25.13184 2022 ft 186 kts 276°
2026-04-20 10:46 54.62785 25.10987 2177 ft 188 kts 244°
2026-04-20 10:46 54.61695 25.09770 2168 ft 192 kts 194°
2026-04-20 10:46 54.60455 25.08983 2206 ft 196 kts 205°
2026-04-20 10:46 54.59288 25.07628 2030 ft 204 kts 218°
2026-04-20 10:47 54.58281 25.06203 2114 ft 180 kts 218°
2026-04-20 10:47 54.57199 25.04845 2071 ft 189 kts 214°
2026-04-20 10:47 54.56098 25.03549 1912 ft 197 kts 212°
2026-04-20 10:47 54.55033 25.02301 1868 ft 173 kts 215°
2026-04-20 10:48 54.54098 25.01049 1689 ft 168 kts 218°
2026-04-20 10:48 54.53176 24.99856 1513 ft 159 kts 216°
2026-04-20 10:48 54.52294 24.98865 1423 ft 150 kts 201°
2026-04-20 10:48 54.51361 24.98671 1174 ft 130 kts 174°
2026-04-20 10:49 54.50523 24.98926 959 ft 108 kts 161°
2026-04-20 10:49 54.49858 24.99015 776 ft 94 kts 168°
2026-04-20 10:49 54.49170 24.98986 648 ft 101 kts 179°
2026-04-20 10:49 54.48564 24.98895 560 ft 81 kts 182°
2026-04-20 10:50 54.48035 24.98774 460 ft 68 kts 184°
2026-04-20 10:50 54.47735 24.98748 454 ft 22 kts 144°
2026-04-20 10:50 54.47647 24.98986 461 ft 14 kts 108°
2026-04-20 10:50 54.47623 24.99082 461 ft 5 kts 165°
2026-04-20 10:51 54.47606 24.99101 461 ft 3 kts 17°